Hourly Data Report for October 01, 2017

All times are specified in Local Standard Time (LST). Add 1 hour to adjust for Daylight Saving Time where and when it is observed.

KEJIMKUJIK 1
NOVA SCOTIA

44°24'11.020" N
65°12'11.070" W
125.00 m
8202592
71599
WKG

Download Data

Hourly Data (October 2017)
Hourly Data Report for October 1, 2017
Temp Definition
°C
Dew Point Temp Definition
°C
Rel Hum Definition
%
Wind Dir Definition
10's deg

Wind Spd Definition
km/h
Visibility Definition
km
Stn Press Definition
kPa
Hmdx Definition


Wind Chill Definition


Weather Definition


TIME
00:00 2.0 1.2 94 33 5   100.94     LegendNANA
01:00 1.5 0.7 94 33 3   100.96     LegendNANA
02:00 1.1 0.3 95 34 5   100.95     LegendNANA
03:00 0.5 -0.3 95 34 3   100.93     LegendNANA
04:00 0.0 -0.7 95 33 4   100.92   -1 LegendNANA
05:00 -0.3 -0.9 96 30 3   100.90   -1 LegendNANA
06:00 -0.4 -1.0 96 31 4   100.90   -2 LegendNANA
07:00 0.6 0.1 96 30 4   100.92     LegendNANA
08:00 4.1 3.2 94 30 4   100.94     LegendNANA
09:00 8.2 5.2 82 26 4   100.95     LegendNANA
10:00 11.7 6.3 69 26 6   100.91     LegendNANA
11:00 13.4 4.4 54 26 9   100.86     LegendNANA
12:00 14.8 4.1 49 26 9   100.79     LegendNANA
13:00 15.6 4.9 49 28 9   100.71     LegendNANA
14:00 16.5 3.2 41 26 9   100.61     LegendNANA
15:00 16.4 3.2 41 27 11   100.55     LegendNANA
16:00 15.7 1.5 38 28 10   100.53     LegendNANA
17:00 13.1 4.2 54 27 7   100.52     LegendNANA
18:00 10.7 3.9 63 29 6   100.53     LegendNANA
19:00 9.0 4.5 73 28 8   100.54     LegendNANA
20:00 7.8 4.8 81 28 5   100.57     LegendNANA
21:00 7.3 5.2 86 28 7   100.60     LegendNANA
22:00 6.5 4.8 89 30 5   100.57     LegendNANA
23:00 5.7 4.2 90 33 5   100.53     LegendNANA

Notes on Data Quality.

Legend

  • E = Estimated
  • M = Missing
  • NA = Not Available
  • ‡ = Partner data that is not subject to review by the National Climate Archives
Date modified: